TimeCDT,TemperatureF,Dew PointF,Humidity,Sea Level PressureIn,VisibilityMPH,Wind Direction,Wind SpeedMPH,Gust SpeedMPH,PrecipitationIn,Events,Conditions,WindDirDegrees,DateUTC
12:00 AM,57.2,42.8,59,30.03,15.0,South,18.4,-,N/A,,Clear,180,2013-09-17 05:00:00
1:00 AM,57,43,49,30.00,,Calm,Calm,,,,,,2013-09-17 06:00:00
1:00 AM,57.2,41.0,55,30.01,15.0,South,20.7,27.6,N/A,,Clear,180,2013-09-17 06:00:00
2:00 AM,55.4,39.2,54,30.00,15.0,South,24.2,32.2,N/A,,Clear,180,2013-09-17 07:00:00
3:00 AM,55.4,41.0,58,29.98,15.0,South,23.0,29.9,N/A,,Clear,180,2013-09-17 08:00:00
4:00 AM,53.6,42.8,67,29.97,15.0,South,21.9,29.9,N/A,,Clear,180,2013-09-17 09:00:00
5:00 AM,53.6,-9999,N/A,29.94,15.0,South,19.6,27.6,N/A,,Clear,170,2013-09-17 10:00:00
6:00 AM,53.6,-9999,N/A,29.92,15.0,South,17.3,29.9,N/A,,Clear,180,2013-09-17 11:00:00
7:00 AM,53,49,81,29.91,,Calm,Calm,,,,,,2013-09-17 12:00:00
7:00 AM,53.6,-9999,N/A,29.92,15.0,South,20.7,-,N/A,,Partly Cloudy,180,2013-09-17 12:00:00
8:00 AM,53.6,-9999,N/A,29.91,15.0,South,17.3,26.5,N/A,,Clear,180,2013-09-17 13:00:00
9:00 AM,57.2,-9999,N/A,29.89,15.0,South,20.7,33.4,N/A,,Clear,180,2013-09-17 14:00:00
10:00 AM,60.8,-9999,N/A,29.87,15.0,South,20.7,31.1,N/A,,Clear,180,2013-09-17 15:00:00
11:00 AM,64.4,-9999,N/A,29.86,15.0,South,18.4,31.1,N/A,,Partly Cloudy,180,2013-09-17 16:00:00
12:00 PM,66.2,-9999,N/A,29.83,15.0,South,25.3,36.8,N/A,,Partly Cloudy,190,2013-09-17 17:00:00
1:00 PM,68,56,57,29.80,,Calm,Calm,,,,,,2013-09-17 18:00:00
1:00 PM,68.0,-9999,N/A,29.81,15.0,South,23.0,32.2,N/A,,Scattered Clouds,180,2013-09-17 18:00:00
2:00 PM,66.2,53.6,64,29.80,15.0,South,25.3,33.4,N/A,,Mostly Cloudy,180,2013-09-17 19:00:00
3:00 PM,66.2,53.6,64,29.79,15.0,South,23.0,34.5,N/A,,Overcast,170,2013-09-17 20:00:00
4:00 PM,66.2,53.6,64,29.77,15.0,South,17.3,33.4,N/A,,Overcast,180,2013-09-17 21:00:00
5:00 PM,64.4,55.4,73,29.77,15.0,South,23.0,32.2,N/A,,Overcast,180,2013-09-17 22:00:00
6:00 PM,64.4,55.4,73,29.76,15.0,South,21.9,29.9,N/A,,Overcast,190,2013-09-17 23:00:00
7:00 PM,64,57,73,29.75,,Calm,Calm,,,,Overcast,,2013-09-18 00:00:00
7:00 PM,64.4,55.4,73,29.75,15.0,South,19.6,26.5,N/A,,Overcast,180,2013-09-18 00:00:00
8:00 PM,62.6,55.4,77,29.75,15.0,South,16.1,-,N/A,,Mostly Cloudy,180,2013-09-18 01:00:00
9:00 PM,60.8,55.4,82,29.76,15.0,South,15.0,23.0,N/A,,Partly Cloudy,170,2013-09-18 02:00:00
10:00 PM,60.8,55.4,82,29.76,15.0,South,16.1,23.0,N/A,,Partly Cloudy,180,2013-09-18 03:00:00
11:00 PM,60.8,57.2,88,29.75,15.0,South,17.3,23.0,N/A,,Clear,180,2013-09-18 04:00:00